Back to catalog

RASSVET-2 NO. 3

AliveCommunicationsSSO
NORAD 59781·PAYLOAD·🇷🇺 Russia
This satellite name has not been confirmed by official sources yet.

Launched May 16, 2024 from Plesetsk Cosmodrome

Loading…

Next Passes (next 24 hours)

TLE

FreshSource: Space-Track

Epoch: Sep 14, 2026, 14:21 UTC

1 59781U 24092J   26257.59857012  .00000118  00000-0  60984-4 0  9997
2 59781  98.6796  16.5846 0011195 310.4040  49.6165 14.31875546121690

Track RASSVET-2 NO. 3 in real time with AllMySat

Download on the App Store